Torna al catalogo

ONEWEB-0063

AttivoComunicazioniPO
NORAD 45448·PAYLOAD·🇬🇧 United Kingdom

Lanciato Mar 21, 2020 da Baikonur Cosmodrome

Loading…

Prossimi Passaggi (prossime 24 ore)

TLE

AggiornatoSource: CelesTrak SupGP

Epoca: Sep 14, 2026, 09:22 UTC

1 45448C 20020AA  26257.39077961 -.00002380  00000+0 -67220-2 0  2573
2 45448  87.8980   3.3399 0001770 111.8255  10.4094 13.11420441    12

Traccia ONEWEB-0063 in tempo reale con AllMySat

Download on the App Store